Time,TemperatureF,DewpointF,PressureIn,WindDirection,WindDirectionDegrees,WindSpeedMPH,WindSpeedGustMPH,Humidity,HourlyPrecipIn,Conditions,Clouds,dailyrainin,SolarRadiationWatts/m^2,SoftwareType,DateUTC
2013-11-07 00:02:00,32.6,30.3,29.94,NW,307,1.0,2.0,91,0.00,RA,RA,0.00,0.0,WeatherDisplay:10.37,2013-11-07 06:02:00,
2013-11-07 00:07:00,32.5,30.2,29.94,NW,307,1.0,3.0,91,0.00,CLR,CLR,0.00,0.0,WeatherDisplay:10.37,2013-11-07 06:07:00,
2013-11-07 00:17:00,32.3,30.2,29.95,NW,307,1.0,2.0,92,0.00,CLR,CLR,0.00,0.0,WeatherDisplay:10.37,2013-11-07 06:17:00,
2013-11-07 00:22:00,32.2,30.1,29.95,NW,307,1.0,2.0,92,0.00,CLR,CLR,0.00,0.0,WeatherDisplay:10.37,2013-11-07 06:22:00,
2013-11-07 00:27:00,32.1,30.0,29.95,NW,307,1.0,2.0,92,0.00,CLR,CLR,0.00,0.0,WeatherDisplay:10.37,2013-11-07 06:27:00,
2013-11-07 00:37:00,31.9,29.8,29.95,NW,307,0.0,2.0,92,0.00,CLR,CLR,0.00,0.0,WeatherDisplay:10.37,2013-11-07 06:37:00,
2013-11-07 00:42:00,31.7,29.6,29.95,NW,307,1.0,2.0,92,0.00,CLR,CLR,0.00,0.0,WeatherDisplay:10.37,2013-11-07 06:42:00,
2013-11-07 00:47:00,31.6,29.5,29.95,NW,307,1.0,2.0,92,0.00,CLR,CLR,0.00,0.0,WeatherDisplay:10.37,2013-11-07 06:47:00,
2013-11-07 00:52:00,31.4,29.4,29.95,NW,307,1.0,1.0,92,0.00,CLR,CLR,0.00,0.0,WeatherDisplay:10.37,2013-11-07 06:52:00,
2013-11-07 01:02:00,31.2,29.4,29.95,NW,307,0.0,1.0,93,0.00,CLR,CLR,0.00,0.0,WeatherDisplay:10.37,2013-11-07 07:02:00,
2013-11-07 01:07:00,31.1,29.3,29.95,NW,307,0.0,2.0,93,0.00,CLR,CLR,0.00,0.0,WeatherDisplay:10.37,2013-11-07 07:07:00,
2013-11-07 01:17:00,31.0,29.2,29.96,NW,307,1.0,2.0,93,0.00,CLR,CLR,0.00,0.0,WeatherDisplay:10.37,2013-11-07 07:17:00,
2013-11-07 01:22:00,30.9,29.1,29.96,NW,307,1.0,2.0,93,0.00,CLR,CLR,0.00,0.0,WeatherDisplay:10.37,2013-11-07 07:22:00,
2013-11-07 01:27:00,30.9,29.1,29.96,NW,307,1.0,2.0,93,0.00,CLR,CLR,0.00,0.0,WeatherDisplay:10.37,2013-11-07 07:27:00,
2013-11-07 01:32:00,30.9,29.1,29.96,NW,307,1.0,2.0,93,0.00,CLR,CLR,0.00,0.0,WeatherDisplay:10.37,2013-11-07 07:32:00,
2013-11-07 01:37:00,30.9,29.1,29.96,NW,307,2.0,3.0,93,0.00,CLR,CLR,0.00,0.0,WeatherDisplay:10.37,2013-11-07 07:37:00,
2013-11-07 01:47:00,30.9,29.1,29.96,NW,307,2.0,3.0,93,0.00,CLR,CLR,0.00,0.0,WeatherDisplay:10.37,2013-11-07 07:47:00,
2013-11-07 01:52:00,30.9,29.1,29.97,NW,307,2.0,3.0,93,0.00,CLR,CLR,0.00,0.0,WeatherDisplay:10.37,2013-11-07 07:52:00,
2013-11-07 01:57:00,30.8,29.1,29.97,NW,307,1.0,2.0,93,0.00,CLR,CLR,0.00,0.0,WeatherDisplay:10.37,2013-11-07 07:57:00,
2013-11-07 02:02:00,30.8,29.0,29.97,NW,307,0.0,3.0,93,0.00,CLR,CLR,0.00,0.0,WeatherDisplay:10.37,2013-11-07 08:02:00,
2013-11-07 02:07:00,30.7,28.9,29.97,NW,307,1.0,3.0,93,0.00,CLR,CLR,0.00,0.0,WeatherDisplay:10.37,2013-11-07 08:07:00,
2013-11-07 02:12:00,30.6,28.8,29.97,NW,307,0.0,3.0,93,0.00,CLR,CLR,0.00,0.0,WeatherDisplay:10.37,2013-11-07 08:12:00,
2013-11-07 02:17:00,30.5,28.7,29.97,NW,307,1.0,3.0,93,0.00,CLR,CLR,0.00,0.0,WeatherDisplay:10.37,2013-11-07 08:17:00,
2013-11-07 02:22:00,30.4,28.7,29.97,NW,307,1.0,3.0,93,0.00,CLR,CLR,0.00,0.0,WeatherDisplay:10.37,2013-11-07 08:22:00,
2013-11-07 02:27:00,30.4,28.6,29.97,NW,307,0.0,2.0,93,0.00,CLR,CLR,0.00,0.0,WeatherDisplay:10.37,2013-11-07 08:27:00,
2013-11-07 02:37:00,30.3,28.5,29.97,NW,307,1.0,2.0,93,0.00,CLR,CLR,0.00,0.0,WeatherDisplay:10.37,2013-11-07 08:37:00,
2013-11-07 02:47:00,30.1,28.3,29.97,NW,307,0.0,0.0,93,0.00,CLR,CLR,0.00,0.0,WeatherDisplay:10.37,2013-11-07 08:47:00,
2013-11-07 02:52:00,30.0,28.2,29.97,NW,307,0.0,1.0,93,0.00,CLR,CLR,0.00,0.0,WeatherDisplay:10.37,2013-11-07 08:52:00,
2013-11-07 02:57:00,29.9,28.1,29.97,NW,307,0.0,1.0,93,0.00,CLR,CLR,0.00,0.0,WeatherDisplay:10.37,2013-11-07 08:57:00,
2013-11-07 03:02:00,29.8,28.0,29.98,NW,307,0.0,1.0,93,0.00,CLR,CLR,0.00,0.0,WeatherDisplay:10.37,2013-11-07 09:02:00,
2013-11-07 03:07:00,29.7,27.9,29.98,NW,307,0.0,0.0,93,0.00,CLR,CLR,0.00,0.0,WeatherDisplay:10.37,2013-11-07 09:07:00,
2013-11-07 03:12:00,29.5,27.7,29.98,NW,307,0.0,0.0,93,0.00,CLR,CLR,0.00,0.0,WeatherDisplay:10.37,2013-11-07 09:12:00,
2013-11-07 03:17:00,29.4,27.9,29.98,NW,307,0.0,0.0,94,0.00,CLR,CLR,0.00,0.0,WeatherDisplay:10.37,2013-11-07 09:17:00,
2013-11-07 03:22:00,29.3,27.8,29.98,NW,307,0.0,0.0,94,0.00,CLR,CLR,0.00,0.0,WeatherDisplay:10.37,2013-11-07 09:22:00,
2013-11-07 03:27:00,29.2,27.7,29.98,NW,307,0.0,0.0,94,0.00,CLR,CLR,0.00,0.0,WeatherDisplay:10.37,2013-11-07 09:27:00,
2013-11-07 03:32:00,29.1,27.6,29.98,NW,307,0.0,0.0,94,0.00,CLR,CLR,0.00,0.0,WeatherDisplay:10.37,2013-11-07 09:32:00,
2013-11-07 03:37:00,29.0,27.5,29.98,NW,307,0.0,0.0,94,0.00,CLR,CLR,0.00,0.0,WeatherDisplay:10.37,2013-11-07 09:37:00,
2013-11-07 03:42:00,28.9,27.4,29.98,NW,307,0.0,1.0,94,0.00,CLR,CLR,0.00,0.0,WeatherDisplay:10.37,2013-11-07 09:42:00,
2013-11-07 03:47:00,28.8,27.3,29.98,NW,307,0.0,0.0,94,0.00,CLR,CLR,0.00,0.0,WeatherDisplay:10.37,2013-11-07 09:47:00,
2013-11-07 03:57:00,28.6,27.1,29.99,NW,307,0.0,2.0,94,0.00,CLR,CLR,0.00,0.0,WeatherDisplay:10.37,2013-11-07 09:57:00,
2013-11-07 04:02:00,28.5,27.0,29.99,NW,307,0.0,0.0,94,0.00,CLR,CLR,0.00,0.0,WeatherDisplay:10.37,2013-11-07 10:02:00,
2013-11-07 04:07:00,28.5,27.0,29.99,NW,307,0.0,0.0,94,0.00,CLR,CLR,0.00,0.0,WeatherDisplay:10.37,2013-11-07 10:07:00,
2013-11-07 04:17:00,28.2,27.0,29.99,NW,307,0.0,1.0,95,0.00,CLR,CLR,0.00,0.0,WeatherDisplay:10.37,2013-11-07 10:17:00,
2013-11-07 04:27:00,28.3,27.0,29.99,NW,307,0.0,2.0,95,0.00,CLR,CLR,0.00,0.0,WeatherDisplay:10.37,2013-11-07 10:27:00,
2013-11-07 04:32:00,28.4,27.2,29.99,NW,307,0.0,2.0,95,0.00,CLR,CLR,0.00,0.0,WeatherDisplay:10.37,2013-11-07 10:32:00,
2013-11-07 04:37:00,28.5,27.3,30.00,NW,307,0.0,1.0,95,0.00,CLR,CLR,0.00,0.0,WeatherDisplay:10.37,2013-11-07 10:37:00,
2013-11-07 04:42:00,28.6,27.4,30.00,NW,307,0.0,2.0,95,0.00,CLR,CLR,0.00,0.0,WeatherDisplay:10.37,2013-11-07 10:42:00,
2013-11-07 04:47:00,28.6,27.1,30.00,NW,307,1.0,2.0,94,0.00,CLR,CLR,0.00,0.0,WeatherDisplay:10.37,2013-11-07 10:47:00,
2013-11-07 04:52:00,28.4,26.9,30.00,NW,307,1.0,2.0,94,0.00,CLR,CLR,0.00,0.0,WeatherDisplay:10.37,2013-11-07 10:52:00,
2013-11-07 04:57:00,28.4,27.2,30.00,NW,307,1.0,2.0,95,0.00,CLR,CLR,0.00,0.0,WeatherDisplay:10.37,2013-11-07 10:57:00,
2013-11-07 05:02:00,28.5,27.3,30.00,NW,307,0.0,2.0,95,0.00,CLR,CLR,0.00,0.0,WeatherDisplay:10.37,2013-11-07 11:02:00,
2013-11-07 05:07:00,28.6,27.4,30.00,NW,307,0.0,1.0,95,0.00,CLR,CLR,0.00,0.0,WeatherDisplay:10.37,2013-11-07 11:07:00,
2013-11-07 05:12:00,28.6,27.4,30.00,NW,307,0.0,1.0,95,0.00,CLR,CLR,0.00,0.0,WeatherDisplay:10.37,2013-11-07 11:12:00,
2013-11-07 05:17:00,28.6,27.0,30.00,NW,307,0.0,2.0,94,0.00,CLR,CLR,0.00,0.0,WeatherDisplay:10.37,2013-11-07 11:17:00,
2013-11-07 05:27:00,28.3,26.8,30.00,NW,307,0.0,1.0,94,0.00,CLR,CLR,0.00,0.0,WeatherDisplay:10.37,2013-11-07 11:27:00,
2013-11-07 05:37:00,28.1,26.6,30.01,NW,307,1.0,2.0,94,0.00,CLR,CLR,0.00,0.0,WeatherDisplay:10.37,2013-11-07 11:37:00,
2013-11-07 05:42:00,27.9,26.4,30.01,NW,307,0.0,0.0,94,0.00,CLR,CLR,0.00,0.0,WeatherDisplay:10.37,2013-11-07 11:42:00,
2013-11-07 05:47:00,27.7,26.2,30.01,NW,307,0.0,1.0,94,0.00,CLR,CLR,0.00,0.0,WeatherDisplay:10.37,2013-11-07 11:47:00,
2013-11-07 05:52:00,27.6,26.1,30.01,NW,307,0.0,0.0,94,0.00,CLR,CLR,0.00,0.0,WeatherDisplay:10.37,2013-11-07 11:52:00,
2013-11-07 05:57:00,27.6,26.3,30.01,NW,307,0.0,0.0,95,0.00,CLR,CLR,0.00,0.0,WeatherDisplay:10.37,2013-11-07 11:57:00,
2013-11-07 06:02:00,27.5,26.2,30.01,NW,307,0.0,0.0,95,0.00,CLR,CLR,0.00,0.0,WeatherDisplay:10.37,2013-11-07 12:02:00,
2013-11-07 06:07:00,27.4,26.2,30.01,NW,307,0.0,0.0,95,0.00,CLR,CLR,0.00,0.0,WeatherDisplay:10.37,2013-11-07 12:07:00,
2013-11-07 06:17:00,27.8,26.8,30.01,NW,307,1.0,3.0,96,0.00,CLR,CLR,0.00,0.0,WeatherDisplay:10.37,2013-11-07 12:17:00,
2013-11-07 06:22:00,28.1,27.1,30.01,WNW,286,1.0,4.0,96,0.00,CLR,CLR,0.00,0.0,WeatherDisplay:10.37,2013-11-07 12:22:00,
2013-11-07 06:27:00,28.0,26.8,30.01,West,270,1.0,3.0,95,0.00,CLR,CLR,0.00,0.0,WeatherDisplay:10.37,2013-11-07 12:27:00,
2013-11-07 06:37:00,28.0,26.8,30.01,West,269,0.0,1.0,95,0.00,CLR,CLR,0.00,0.0,WeatherDisplay:10.37,2013-11-07 12:37:00,
2013-11-07 06:42:00,28.1,26.8,30.01,West,269,0.0,1.0,95,0.00,CLR,CLR,0.00,0.0,WeatherDisplay:10.37,2013-11-07 12:42:00,
2013-11-07 06:47:00,28.1,26.9,30.02,West,269,0.0,0.0,95,0.00,CLR,CLR,0.00,0.0,WeatherDisplay:10.37,2013-11-07 12:47:00,
2013-11-07 06:57:00,28.1,26.9,30.02,West,269,0.0,1.0,95,0.00,CLR,CLR,0.00,0.0,WeatherDisplay:10.37,2013-11-07 12:57:00,
2013-11-07 07:02:00,28.3,27.0,30.02,West,269,1.0,2.0,95,0.00,CLR,CLR,0.00,0.0,WeatherDisplay:10.37,2013-11-07 13:02:00,
2013-11-07 07:07:00,28.5,27.3,30.02,West,269,0.0,2.0,95,0.00,CLR,CLR,0.00,0.0,WeatherDisplay:10.37,2013-11-07 13:07:00,
2013-11-07 07:12:00,28.9,27.9,30.02,West,269,2.0,3.0,96,0.00,CLR,CLR,0.00,0.0,WeatherDisplay:10.37,2013-11-07 13:12:00,
2013-11-07 07:17:00,29.5,28.5,30.03,West,269,3.0,4.0,96,0.00,CLR,CLR,0.00,0.0,WeatherDisplay:10.37,2013-11-07 13:17:00,
2013-11-07 07:22:00,29.9,28.6,30.03,West,267,3.0,4.0,95,0.00,CLR,CLR,0.00,0.0,WeatherDisplay:10.37,2013-11-07 13:22:00,
2013-11-07 07:27:00,30.2,28.9,30.03,WSW,255,3.0,5.0,95,0.00,CLR,CLR,0.00,0.0,WeatherDisplay:10.37,2013-11-07 13:27:00,
2013-11-07 07:37:00,30.7,29.2,30.03,WSW,248,2.0,4.0,94,0.00,CLR,CLR,0.00,0.0,WeatherDisplay:10.37,2013-11-07 13:37:00,
2013-11-07 07:42:00,31.0,29.5,30.03,WSW,248,3.0,4.0,94,0.00,CLR,CLR,0.00,0.0,WeatherDisplay:10.37,2013-11-07 13:42:00,
2013-11-07 07:47:00,31.2,29.7,30.03,WSW,248,3.0,5.0,94,0.00,CLR,CLR,0.00,0.0,WeatherDisplay:10.37,2013-11-07 13:47:00,
2013-11-07 07:52:00,31.5,30.0,30.03,WSW,245,5.0,6.0,94,0.01,RA,RA,0.01,0.0,WeatherDisplay:10.37,2013-11-07 13:52:00,
2013-11-07 07:57:00,31.7,30.2,30.04,WSW,243,5.0,8.0,94,0.00,RA,RA,0.01,0.0,WeatherDisplay:10.37,2013-11-07 13:57:00,
2013-11-07 08:02:00,32.1,30.6,30.04,WSW,250,5.0,8.0,94,0.00,CLR,CLR,0.01,0.0,WeatherDisplay:10.37,2013-11-07 14:02:00,
2013-11-07 08:07:00,32.5,31.0,30.04,WSW,249,5.0,8.0,94,0.00,CLR,CLR,0.01,0.0,WeatherDisplay:10.37,2013-11-07 14:07:00,
2013-11-07 08:12:00,32.8,31.3,30.04,WSW,244,5.0,7.0,94,0.00,CLR,CLR,0.01,0.0,WeatherDisplay:10.37,2013-11-07 14:12:00,
2013-11-07 08:17:00,33.1,31.3,30.04,WSW,247,6.0,8.0,93,0.00,CLR,CLR,0.01,0.0,WeatherDisplay:10.37,2013-11-07 14:17:00,
2013-11-07 08:22:00,33.4,31.6,30.03,WSW,248,5.0,8.0,93,0.00,CLR,CLR,0.01,0.0,WeatherDisplay:10.37,2013-11-07 14:22:00,
2013-11-07 08:27:00,33.6,31.5,30.03,WSW,246,6.0,9.0,92,0.00,CLR,CLR,0.01,0.0,WeatherDisplay:10.37,2013-11-07 14:27:00,
2013-11-07 08:32:00,34.1,32.3,30.03,WSW,248,7.0,8.0,93,0.00,CLR,CLR,0.01,0.0,WeatherDisplay:10.37,2013-11-07 14:32:00,
2013-11-07 08:37:00,34.3,32.2,30.04,WSW,252,5.0,9.0,92,0.00,CLR,CLR,0.01,0.0,WeatherDisplay:10.37,2013-11-07 14:37:00,
2013-11-07 08:42:00,34.7,32.7,30.04,WSW,249,6.0,8.0,92,0.00,CLR,CLR,0.01,0.0,WeatherDisplay:10.37,2013-11-07 14:42:00,
2013-11-07 08:47:00,35.1,32.7,30.04,WSW,248,7.0,10.0,91,0.00,CLR,CLR,0.01,0.0,WeatherDisplay:10.37,2013-11-07 14:47:00,
2013-11-07 08:57:00,35.7,33.1,30.05,WSW,250,7.0,10.0,90,0.00,CLR,CLR,0.01,0.0,WeatherDisplay:10.37,2013-11-07 14:57:00,
2013-11-07 09:02:00,36.2,33.0,30.05,WSW,248,8.0,12.0,88,0.00,CLR,CLR,0.01,0.0,WeatherDisplay:10.37,2013-11-07 15:02:00,
2013-11-07 09:07:00,36.7,33.5,30.05,WSW,244,8.0,12.0,88,0.00,CLR,CLR,0.01,0.0,WeatherDisplay:10.37,2013-11-07 15:07:00,
2013-11-07 09:12:00,37.1,34.2,30.05,WSW,246,7.0,12.0,89,0.00,CLR,CLR,0.01,0.0,WeatherDisplay:10.37,2013-11-07 15:12:00,
2013-11-07 09:17:00,37.5,33.1,30.05,WSW,256,5.0,10.0,84,0.00,CLR,CLR,0.01,0.0,WeatherDisplay:10.37,2013-11-07 15:17:00,
2013-11-07 09:27:00,38.5,34.4,30.05,WSW,252,6.0,9.0,85,0.00,CLR,CLR,0.01,0.0,WeatherDisplay:10.37,2013-11-07 15:27:00,
2013-11-07 09:32:00,38.8,34.4,30.05,WSW,254,6.0,13.0,84,0.00,CLR,CLR,0.01,0.0,WeatherDisplay:10.37,2013-11-07 15:32:00,
2013-11-07 09:37:00,39.1,34.1,30.05,WSW,251,6.0,12.0,82,0.00,CLR,CLR,0.01,0.0,WeatherDisplay:10.37,2013-11-07 15:37:00,
2013-11-07 09:42:00,39.5,34.5,30.05,WSW,254,5.0,10.0,82,0.00,CLR,CLR,0.01,0.0,WeatherDisplay:10.37,2013-11-07 15:42:00,
2013-11-07 09:47:00,39.9,34.5,30.04,West,261,5.0,7.0,81,0.00,CLR,CLR,0.01,0.0,WeatherDisplay:10.37,2013-11-07 15:47:00,
2013-11-07 09:57:00,40.3,34.9,30.04,WSW,240,5.0,7.0,81,0.00,CLR,CLR,0.01,0.0,WeatherDisplay:10.37,2013-11-07 15:57:00,
2013-11-07 10:02:00,40.8,35.5,30.04,WSW,245,6.0,8.0,81,0.00,CLR,CLR,0.01,0.0,WeatherDisplay:10.37,2013-11-07 16:02:00,
2013-11-07 10:07:00,41.0,35.0,30.04,WSW,252,6.0,8.0,79,0.00,CLR,CLR,0.01,0.0,WeatherDisplay:10.37,2013-11-07 16:07:00,
2013-11-07 10:17:00,41.7,35.4,30.04,WSW,249,6.0,10.0,78,0.00,CLR,CLR,0.01,0.0,WeatherDisplay:10.37,2013-11-07 16:17:00,
2013-11-07 10:22:00,41.9,34.6,30.04,WSW,257,3.0,9.0,75,0.00,CLR,CLR,0.01,0.0,WeatherDisplay:10.37,2013-11-07 16:22:00,
2013-11-07 10:27:00,42.3,34.6,30.04,West,261,5.0,12.0,74,0.00,CLR,CLR,0.01,0.0,WeatherDisplay:10.37,2013-11-07 16:27:00,
2013-11-07 10:32:00,42.5,35.1,30.03,WSW,256,7.0,12.0,75,0.00,CLR,CLR,0.01,0.0,WeatherDisplay:10.37,2013-11-07 16:32:00,
2013-11-07 10:37:00,42.9,35.5,30.03,West,259,5.0,10.0,75,0.00,CLR,CLR,0.01,0.0,WeatherDisplay:10.37,2013-11-07 16:37:00,
2013-11-07 10:47:00,43.5,36.5,30.03,WSW,252,6.0,12.0,76,0.00,CLR,CLR,0.01,0.0,WeatherDisplay:10.37,2013-11-07 16:47:00,
2013-11-07 10:57:00,43.8,36.1,30.02,WSW,242,7.0,10.0,74,0.00,CLR,CLR,0.01,0.0,WeatherDisplay:10.37,2013-11-07 16:57:00,
2013-11-07 11:02:00,44.1,36.4,30.02,WSW,238,9.0,12.0,74,0.00,CLR,CLR,0.01,0.0,WeatherDisplay:10.37,2013-11-07 17:02:00,
2013-11-07 11:07:00,44.9,37.4,30.02,WSW,253,8.0,15.0,75,0.00,CLR,CLR,0.01,0.0,WeatherDisplay:10.37,2013-11-07 17:07:00,
2013-11-07 11:17:00,45.0,36.1,30.01,WSW,257,6.0,10.0,71,0.00,CLR,CLR,0.01,0.0,WeatherDisplay:10.37,2013-11-07 17:17:00,
2013-11-07 11:27:00,45.2,36.0,30.01,WSW,253,8.0,15.0,70,0.00,CLR,CLR,0.01,0.0,WeatherDisplay:10.37,2013-11-07 17:27:00,
2013-11-07 11:32:00,45.3,35.7,30.00,WSW,257,8.0,14.0,69,0.00,CLR,CLR,0.01,0.0,WeatherDisplay:10.37,2013-11-07 17:32:00,
2013-11-07 11:37:00,45.5,35.9,30.00,WSW,257,9.0,13.0,69,0.00,CLR,CLR,0.01,0.0,WeatherDisplay:10.37,2013-11-07 17:37:00,
2013-11-07 11:47:00,45.0,35.8,30.00,WSW,257,8.0,14.0,70,0.00,CLR,CLR,0.01,0.0,WeatherDisplay:10.37,2013-11-07 17:47:00,
2013-11-07 11:57:00,44.3,36.1,30.00,WSW,257,9.0,15.0,73,0.00,CLR,CLR,0.01,0.0,WeatherDisplay:10.37,2013-11-07 17:57:00,
2013-11-07 12:02:00,43.8,35.0,30.00,West,259,9.0,14.0,71,0.00,CLR,CLR,0.01,0.0,WeatherDisplay:10.37,2013-11-07 18:02:00,
2013-11-07 12:07:00,43.8,35.0,30.00,WSW,258,8.0,13.0,71,0.00,CLR,CLR,0.01,0.0,WeatherDisplay:10.37,2013-11-07 18:07:00,
2013-11-07 12:12:00,43.7,35.6,30.00,WSW,255,7.0,14.0,73,0.00,CLR,CLR,0.01,0.0,WeatherDisplay:10.37,2013-11-07 18:12:00,
2013-11-07 12:17:00,43.5,36.1,29.99,West,262,8.0,12.0,75,0.00,CLR,CLR,0.01,0.0,WeatherDisplay:10.37,2013-11-07 18:17:00,
2013-11-07 12:22:00,43.3,36.0,29.99,West,263,6.0,13.0,75,0.00,CLR,CLR,0.01,0.0,WeatherDisplay:10.37,2013-11-07 18:22:00,
2013-11-07 12:27:00,43.2,36.1,29.99,WSW,255,9.0,12.0,76,0.00,CLR,CLR,0.01,0.0,WeatherDisplay:10.37,2013-11-07 18:27:00,
2013-11-07 12:37:00,43.2,36.1,29.98,WSW,252,7.0,10.0,76,0.00,CLR,CLR,0.01,0.0,WeatherDisplay:10.37,2013-11-07 18:37:00,
2013-11-07 12:42:00,43.1,36.0,29.98,West,260,5.0,10.0,76,0.00,CLR,CLR,0.01,0.0,WeatherDisplay:10.37,2013-11-07 18:42:00,
2013-11-07 12:47:00,42.9,36.5,29.98,West,262,5.0,12.0,78,0.00,CLR,CLR,0.01,0.0,WeatherDisplay:10.37,2013-11-07 18:47:00,
2013-11-07 12:57:00,42.9,36.1,29.98,West,260,7.0,13.0,77,0.00,CLR,CLR,0.01,0.0,WeatherDisplay:10.37,2013-11-07 18:57:00,
2013-11-07 13:02:00,42.9,36.8,29.98,WSW,255,7.0,12.0,79,0.00,CLR,CLR,0.01,0.0,WeatherDisplay:10.37,2013-11-07 19:02:00,
2013-11-07 13:07:00,43.1,36.7,29.98,WSW,255,8.0,13.0,78,0.00,CLR,CLR,0.01,0.0,WeatherDisplay:10.37,2013-11-07 19:07:00,
2013-11-07 13:17:00,43.1,35.4,29.98,WSW,254,6.0,13.0,74,0.00,CLR,CLR,0.01,0.0,WeatherDisplay:10.37,2013-11-07 19:17:00,
2013-11-07 13:27:00,43.8,36.4,29.97,West,260,5.0,12.0,75,0.00,CLR,CLR,0.01,0.0,WeatherDisplay:10.37,2013-11-07 19:27:00,
2013-11-07 13:32:00,44.0,36.2,29.97,West,264,8.0,14.0,74,0.00,CLR,CLR,0.01,0.0,WeatherDisplay:10.37,2013-11-07 19:32:00,
2013-11-07 13:37:00,43.8,35.7,29.98,WSW,255,8.0,15.0,73,0.00,CLR,CLR,0.01,0.0,WeatherDisplay:10.37,2013-11-07 19:37:00,
2013-11-07 13:47:00,43.5,36.4,29.97,WSW,251,8.0,12.0,76,0.00,CLR,CLR,0.01,0.0,WeatherDisplay:10.37,2013-11-07 19:47:00,
2013-11-07 13:57:00,43.5,36.1,29.97,West,261,5.0,10.0,75,0.00,CLR,CLR,0.01,0.0,WeatherDisplay:10.37,2013-11-07 19:57:00,
2013-11-07 14:07:00,43.6,36.2,29.97,WSW,257,5.0,10.0,75,0.00,CLR,CLR,0.01,0.0,WeatherDisplay:10.37,2013-11-07 20:07:00,
2013-11-07 14:17:00,43.6,36.5,29.96,West,265,5.0,8.0,76,0.00,CLR,CLR,0.01,0.0,WeatherDisplay:10.37,2013-11-07 20:17:00,
2013-11-07 14:22:00,43.6,36.5,29.96,WSW,255,8.0,12.0,76,0.00,CLR,CLR,0.01,0.0,WeatherDisplay:10.37,2013-11-07 20:22:00,
2013-11-07 14:27:00,43.6,36.9,29.95,WSW,246,7.0,9.0,77,0.00,CLR,CLR,0.01,0.0,WeatherDisplay:10.37,2013-11-07 20:27:00,
2013-11-07 14:37:00,44.0,37.3,29.95,WSW,254,6.0,12.0,77,0.00,CLR,CLR,0.01,0.0,WeatherDisplay:10.37,2013-11-07 20:37:00,
2013-11-07 14:42:00,44.2,37.5,29.95,WSW,254,7.0,12.0,77,0.00,CLR,CLR,0.01,0.0,WeatherDisplay:10.37,2013-11-07 20:42:00,
2013-11-07 14:47:00,44.2,37.1,29.95,WSW,249,9.0,13.0,76,0.00,CLR,CLR,0.01,0.0,WeatherDisplay:10.37,2013-11-07 20:47:00,
2013-11-07 14:57:00,44.0,37.3,29.95,WSW,253,5.0,12.0,77,0.00,CLR,CLR,0.01,0.0,WeatherDisplay:10.37,2013-11-07 20:57:00,
2013-11-07 15:02:00,43.9,37.5,29.95,WSW,258,5.0,11.0,78,0.00,CLR,CLR,0.01,0.0,WeatherDisplay:10.37,2013-11-07 21:02:00,
2013-11-07 15:07:00,43.8,37.7,29.95,West,264,7.0,12.0,79,0.00,CLR,CLR,0.01,0.0,WeatherDisplay:10.37,2013-11-07 21:07:00,
2013-11-07 15:12:00,43.5,38.4,29.96,West,276,6.0,12.0,82,0.00,CLR,CLR,0.01,0.0,WeatherDisplay:10.37,2013-11-07 21:12:00,
2013-11-07 15:17:00,43.1,38.3,29.96,WNW,285,7.0,13.0,83,0.00,CLR,CLR,0.01,0.0,WeatherDisplay:10.37,2013-11-07 21:17:00,
2013-11-07 15:27:00,42.5,37.7,29.96,West,281,7.0,12.0,83,0.00,CLR,CLR,0.01,0.0,WeatherDisplay:10.37,2013-11-07 21:27:00,
2013-11-07 15:37:00,42.4,37.9,29.97,WNW,287,7.0,10.0,84,0.00,CLR,CLR,0.01,0.0,WeatherDisplay:10.37,2013-11-07 21:37:00,
2013-11-07 15:42:00,41.9,37.4,29.97,WNW,286,7.0,12.0,84,0.00,CLR,CLR,0.01,0.0,WeatherDisplay:10.37,2013-11-07 21:42:00,
2013-11-07 15:47:00,41.3,36.8,29.97,West,280,5.0,12.0,84,0.00,CLR,CLR,0.01,0.0,WeatherDisplay:10.37,2013-11-07 21:47:00,
2013-11-07 15:57:00,40.6,36.4,29.97,West,280,7.0,9.0,85,0.00,CLR,CLR,0.01,0.0,WeatherDisplay:10.37,2013-11-07 21:57:00,
2013-11-07 16:02:00,40.2,36.0,29.98,WNW,293,6.0,10.0,85,0.00,CLR,CLR,0.01,0.0,WeatherDisplay:10.37,2013-11-07 22:02:00,
2013-11-07 16:07:00,39.8,36.0,29.97,WNW,290,5.0,9.0,86,0.00,CLR,CLR,0.01,0.0,WeatherDisplay:10.37,2013-11-07 22:07:00,
2013-11-07 16:12:00,39.7,35.8,29.98,WNW,286,5.0,10.0,86,0.00,CLR,CLR,0.01,0.0,WeatherDisplay:10.37,2013-11-07 22:12:00,
2013-11-07 16:17:00,39.5,35.7,29.98,WNW,288,6.0,10.0,86,0.00,CLR,CLR,0.01,0.0,WeatherDisplay:10.37,2013-11-07 22:17:00,
2013-11-07 16:27:00,39.1,35.3,29.99,WNW,284,3.0,9.0,86,0.00,CLR,CLR,0.01,0.0,WeatherDisplay:10.37,2013-11-07 22:27:00,
2013-11-07 16:37:00,38.6,34.5,29.99,WNW,282,6.0,12.0,85,0.00,CLR,CLR,0.01,0.0,WeatherDisplay:10.37,2013-11-07 22:37:00,
2013-11-07 16:47:00,38.1,34.3,29.99,WNW,284,5.0,9.0,86,0.00,CLR,CLR,0.01,0.0,WeatherDisplay:10.37,2013-11-07 22:47:00,
2013-11-07 16:52:00,38.0,33.9,30.00,WNW,293,6.0,8.0,85,0.00,CLR,CLR,0.01,0.0,WeatherDisplay:10.37,2013-11-07 22:52:00,
2013-11-07 16:57:00,37.9,33.5,30.00,WNW,288,6.0,12.0,84,0.00,CLR,CLR,0.01,0.0,WeatherDisplay:10.37,2013-11-07 22:57:00,
2013-11-07 17:02:00,37.7,33.6,30.00,WNW,292,6.0,10.0,85,0.00,CLR,CLR,0.01,0.0,WeatherDisplay:10.37,2013-11-07 23:02:00,
2013-11-07 17:07:00,37.6,33.5,30.00,WNW,286,5.0,10.0,85,0.00,CLR,CLR,0.01,0.0,WeatherDisplay:10.37,2013-11-07 23:07:00,
2013-11-07 17:12:00,37.2,33.4,30.00,West,281,5.0,9.0,86,0.00,CLR,CLR,0.01,0.0,WeatherDisplay:10.37,2013-11-07 23:12:00,
2013-11-07 17:17:00,36.7,32.9,30.01,WNW,286,6.0,12.0,86,0.00,CLR,CLR,0.01,0.0,WeatherDisplay:10.37,2013-11-07 23:17:00,
2013-11-07 17:27:00,35.8,32.4,30.01,WNW,292,5.0,7.0,87,0.00,CLR,CLR,0.01,0.0,WeatherDisplay:10.37,2013-11-07 23:27:00,
2013-11-07 17:32:00,35.4,32.2,30.01,WNW,285,6.0,8.0,88,0.00,CLR,CLR,0.01,0.0,WeatherDisplay:10.37,2013-11-07 23:32:00,
2013-11-07 17:37:00,35.1,31.9,30.01,WNW,284,3.0,8.0,88,0.00,CLR,CLR,0.01,0.0,WeatherDisplay:10.37,2013-11-07 23:37:00,
2013-11-07 17:47:00,34.4,31.5,30.01,WNW,291,2.0,4.0,89,0.00,CLR,CLR,0.01,0.0,WeatherDisplay:10.37,2013-11-07 23:47:00,
2013-11-07 17:57:00,33.9,31.2,30.02,West,281,2.0,4.0,90,0.00,CLR,CLR,0.01,0.0,WeatherDisplay:10.37,2013-11-07 23:57:00,
2013-11-07 18:07:00,33.2,30.6,30.02,West,272,2.0,3.0,90,0.00,CLR,CLR,0.01,0.0,WeatherDisplay:10.37,2013-11-08 00:07:00,
2013-11-07 18:17:00,32.5,30.2,30.02,West,269,2.0,4.0,91,0.00,CLR,CLR,0.01,0.0,WeatherDisplay:10.37,2013-11-08 00:17:00,
2013-11-07 18:27:00,32.3,30.2,30.02,West,268,2.0,5.0,92,0.00,CLR,CLR,0.01,0.0,WeatherDisplay:10.37,2013-11-08 00:27:00,
2013-11-07 18:32:00,32.4,30.3,30.02,West,268,2.0,4.0,92,0.00,CLR,CLR,0.01,0.0,WeatherDisplay:10.37,2013-11-08 00:32:00,
2013-11-07 18:37:00,32.2,30.1,30.02,West,269,1.0,3.0,92,0.00,CLR,CLR,0.01,0.0,WeatherDisplay:10.37,2013-11-08 00:37:00,
2013-11-07 18:42:00,32.0,29.9,30.02,West,269,1.0,2.0,92,0.00,CLR,CLR,0.01,0.0,WeatherDisplay:10.37,2013-11-08 00:42:00,
2013-11-07 18:47:00,31.7,29.6,30.02,West,269,1.0,2.0,92,0.00,CLR,CLR,0.01,0.0,WeatherDisplay:10.37,2013-11-08 00:47:00,
2013-11-07 18:57:00,31.0,29.2,30.03,West,269,1.0,3.0,93,0.00,CLR,CLR,0.01,0.0,WeatherDisplay:10.37,2013-11-08 00:57:00,
2013-11-07 19:02:00,30.9,29.1,30.03,West,269,2.0,3.0,93,0.00,CLR,CLR,0.01,0.0,WeatherDisplay:10.37,2013-11-08 01:02:00,
2013-11-07 19:07:00,31.1,29.6,30.03,West,269,2.0,3.0,94,0.00,CLR,CLR,0.01,0.0,WeatherDisplay:10.37,2013-11-08 01:07:00,
2013-11-07 19:12:00,31.3,29.7,30.03,West,277,2.0,4.0,94,0.00,CLR,CLR,0.01,0.0,WeatherDisplay:10.37,2013-11-08 01:12:00,
2013-11-07 19:17:00,31.5,30.0,30.03,WNW,286,2.0,5.0,94,0.00,CLR,CLR,0.01,0.0,WeatherDisplay:10.37,2013-11-08 01:17:00,
2013-11-07 19:27:00,32.4,30.8,30.03,WNW,284,2.0,6.0,94,0.00,CLR,CLR,0.01,0.0,WeatherDisplay:10.37,2013-11-08 01:27:00,
2013-11-07 19:37:00,32.5,30.7,30.03,WNW,283,2.0,3.0,93,0.00,CLR,CLR,0.01,0.0,WeatherDisplay:10.37,2013-11-08 01:37:00,
2013-11-07 19:47:00,32.2,30.1,30.03,West,278,2.0,3.0,92,0.00,CLR,CLR,0.01,0.0,WeatherDisplay:10.37,2013-11-08 01:47:00,
2013-11-07 19:57:00,31.7,29.6,30.03,West,273,2.0,3.0,92,0.00,CLR,CLR,0.01,0.0,WeatherDisplay:10.37,2013-11-08 01:57:00,
2013-11-07 20:02:00,31.5,29.7,30.03,West,273,1.0,3.0,93,0.00,CLR,CLR,0.01,0.0,WeatherDisplay:10.37,2013-11-08 02:02:00,
2013-11-07 20:07:00,31.3,29.5,30.02,West,273,1.0,2.0,93,0.00,CLR,CLR,0.01,0.0,WeatherDisplay:10.37,2013-11-08 02:07:00,
2013-11-07 20:17:00,31.0,29.5,30.02,West,273,1.0,3.0,94,0.00,CLR,CLR,0.01,0.0,WeatherDisplay:10.37,2013-11-08 02:17:00,
2013-11-07 20:27:00,31.2,29.7,30.02,West,273,2.0,3.0,94,0.00,CLR,CLR,0.01,0.0,WeatherDisplay:10.37,2013-11-08 02:27:00,
2013-11-07 20:32:00,30.8,29.1,30.02,West,273,0.0,2.0,93,0.00,CLR,CLR,0.01,0.0,WeatherDisplay:10.37,2013-11-08 02:32:00,
2013-11-07 20:37:00,30.5,28.7,30.02,West,273,0.0,0.0,93,0.00,CLR,CLR,0.01,0.0,WeatherDisplay:10.37,2013-11-08 02:37:00,
2013-11-07 20:47:00,30.2,28.7,30.02,West,273,0.0,1.0,94,0.00,CLR,CLR,0.01,0.0,WeatherDisplay:10.37,2013-11-08 02:47:00,
2013-11-07 20:52:00,30.1,28.6,30.02,West,273,0.0,1.0,94,0.00,CLR,CLR,0.01,0.0,WeatherDisplay:10.37,2013-11-08 02:52:00,
2013-11-07 20:57:00,29.9,28.4,30.02,West,273,0.0,0.0,94,0.00,CLR,CLR,0.01,0.0,WeatherDisplay:10.37,2013-11-08 02:57:00,
2013-11-07 21:02:00,29.7,28.2,30.02,West,273,0.0,0.0,94,0.00,CLR,CLR,0.01,0.0,WeatherDisplay:10.37,2013-11-08 03:02:00,
2013-11-07 21:12:00,29.5,28.0,30.02,West,273,2.0,2.0,94,0.00,CLR,CLR,0.01,0.0,WeatherDisplay:10.37,2013-11-08 03:12:00,
2013-11-07 21:17:00,29.6,28.4,30.02,West,273,1.0,2.0,95,0.00,CLR,CLR,0.01,0.0,WeatherDisplay:10.37,2013-11-08 03:17:00,
2013-11-07 21:22:00,29.8,28.5,30.02,West,273,2.0,3.0,95,0.00,CLR,CLR,0.01,0.0,WeatherDisplay:10.37,2013-11-08 03:22:00,
2013-11-07 21:27:00,29.9,28.6,30.02,West,270,2.0,3.0,95,0.00,CLR,CLR,0.01,0.0,WeatherDisplay:10.37,2013-11-08 03:27:00,
2013-11-07 21:32:00,29.9,28.6,30.02,West,265,2.0,4.0,95,0.00,CLR,CLR,0.01,0.0,WeatherDisplay:10.37,2013-11-08 03:32:00,
2013-11-07 21:37:00,30.0,28.8,30.02,West,261,2.0,4.0,95,0.00,CLR,CLR,0.01,0.0,WeatherDisplay:10.37,2013-11-08 03:37:00,
2013-11-07 21:47:00,30.5,29.2,30.02,WSW,258,2.0,5.0,95,0.00,CLR,CLR,0.01,0.0,WeatherDisplay:10.37,2013-11-08 03:47:00,
2013-11-07 21:57:00,30.5,29.2,30.02,West,259,1.0,3.0,95,0.00,CLR,CLR,0.01,0.0,WeatherDisplay:10.37,2013-11-08 03:57:00,
2013-11-07 22:02:00,30.3,28.7,30.02,West,259,2.0,3.0,94,0.00,CLR,CLR,0.01,0.0,WeatherDisplay:10.37,2013-11-08 04:02:00,
2013-11-07 22:07:00,29.9,28.3,30.02,West,259,1.0,3.0,94,0.00,CLR,CLR,0.01,0.0,WeatherDisplay:10.37,2013-11-08 04:07:00,
2013-11-07 22:12:00,29.6,28.1,30.02,West,259,1.0,2.0,94,0.00,CLR,CLR,0.01,0.0,WeatherDisplay:10.37,2013-11-08 04:12:00,
2013-11-07 22:17:00,29.5,28.0,30.01,West,259,0.0,0.0,94,0.00,CLR,CLR,0.01,0.0,WeatherDisplay:10.37,2013-11-08 04:17:00,
2013-11-07 22:27:00,29.2,27.9,30.02,West,259,1.0,1.0,95,0.00,CLR,CLR,0.01,0.0,WeatherDisplay:10.37,2013-11-08 04:27:00,
2013-11-07 22:32:00,29.1,27.8,30.02,West,259,0.0,1.0,95,0.00,CLR,CLR,0.01,0.0,WeatherDisplay:10.37,2013-11-08 04:32:00,
2013-11-07 22:42:00,28.8,27.5,30.02,West,259,2.0,3.0,95,0.00,CLR,CLR,0.01,0.0,WeatherDisplay:10.37,2013-11-08 04:42:00,
2013-11-07 22:47:00,28.9,27.7,30.02,WSW,258,2.0,3.0,95,0.00,CLR,CLR,0.01,0.0,WeatherDisplay:10.37,2013-11-08 04:47:00,
2013-11-07 22:57:00,29.2,28.2,30.02,WSW,257,2.0,4.0,96,0.00,CLR,CLR,0.01,0.0,WeatherDisplay:10.37,2013-11-08 04:57:00,
2013-11-07 23:02:00,29.2,27.9,30.02,WSW,257,2.0,3.0,95,0.00,CLR,CLR,0.01,0.0,WeatherDisplay:10.37,2013-11-08 05:02:00,
2013-11-07 23:07:00,29.2,27.9,30.02,WSW,257,2.0,4.0,95,0.00,CLR,CLR,0.01,0.0,WeatherDisplay:10.37,2013-11-08 05:07:00,
2013-11-07 23:12:00,29.0,27.7,30.02,WSW,257,2.0,3.0,95,0.00,CLR,CLR,0.01,0.0,WeatherDisplay:10.37,2013-11-08 05:12:00,
2013-11-07 23:17:00,28.9,27.6,30.02,WSW,257,1.0,4.0,95,0.00,CLR,CLR,0.01,0.0,WeatherDisplay:10.37,2013-11-08 05:17:00,
2013-11-07 23:22:00,28.7,27.5,30.02,WSW,257,0.0,2.0,95,0.00,CLR,CLR,0.01,0.0,WeatherDisplay:10.37,2013-11-08 05:22:00,
2013-11-07 23:27:00,28.6,27.4,30.02,WSW,257,1.0,2.0,95,0.00,CLR,CLR,0.01,0.0,WeatherDisplay:10.37,2013-11-08 05:27:00,
2013-11-07 23:32:00,28.6,27.4,30.02,WSW,257,1.0,2.0,95,0.00,CLR,CLR,0.01,0.0,WeatherDisplay:10.37,2013-11-08 05:32:00,
2013-11-07 23:37:00,28.8,27.8,30.02,WSW,257,0.0,2.0,96,0.00,CLR,CLR,0.01,0.0,WeatherDisplay:10.37,2013-11-08 05:37:00,
2013-11-07 23:42:00,28.9,27.9,30.02,WSW,257,0.0,1.0,96,0.00,CLR,CLR,0.01,0.0,WeatherDisplay:10.37,2013-11-08 05:42:00,
2013-11-07 23:47:00,29.0,28.0,30.02,WSW,257,1.0,3.0,96,0.00,CLR,CLR,0.01,0.0,WeatherDisplay:10.37,2013-11-08 05:47:00,
2013-11-07 23:57:00,29.3,28.3,30.03,WSW,257,2.0,3.0,96,0.00,RA,RA,0.00,0.0,WeatherDisplay:10.37,2013-11-08 05:57:00,